Starlink 35173

operational
NORAD ID: 65744 Int'l Des: 2025-216 Owner: SPXS Country: US Constellation: starlink
LEOCIRCULAR

关于 Starlink 35173

正在加载描述...

实时位置

正在加载3D地球...

即将过境

高度历史

Altitude vs Time

uPlot chart will show altitude changes over time

两行轨道根数

1 65744U 25216L 26063.12072697 .00021927 00000-0 75022-3 0 9993
2 65744 53.1614 358.5686 0000851 50.9434 309.1642 15.30202557 25741
Epoch: Mar 4, 2026 • Age: 16 hours

当前状态

高度 487.1 km
速度 7.62 km/s
星下点 -35.67°S, 159.48°E
发射日期 Sep 25, 2025
运行时间 0.4 years
类型 internet

技术详情

分类 Payload
质量 575.00 kg
干质量 530.00 kg
总质量 575.00 kg
长度 0.30 m
直径 4.10 m
跨度 29.00 m
形状 Box + pan
制造商 SPXS
平台类型 Starlink V2MO
阶段状态 In Orbit
所有者/国家 SPXS/US

大型星座

Loading constellations...